sat.trackr.live / text

‹ back to catalog

STARLINK-1830

NORAD 46727 · 2020-073BK

PAYLOAD ACTIVE UNKNOWN

§ Identity

Operator
Country
US
Launch date
2020-10-18
Launch site
AFETR
Launch vehicle
Mass (kg)
RCS (m²)

Purposes: comms

External: N2YO · Heavens-Above · Gunter

§ Orbital elements

Epoch: 2026-08-22T03:19:22.403136Z

Period
88.26 min
Inclination
53.0141°
Eccentricity
0.0009628
Mean motion
16.31551730 rev/d
Perigee alt
182.1 km
Apogee alt
194.7 km
Semi-major
6,566.5 km
B*
8.6104e-4
RAAN
77.7121°
Arg perigee
276.6520°
Mean anomaly
83.3427°
Rev number
32,404

§ Raw data

STARLINK-18301 46727U 20073BK  26234.13845374  .04750454  12132-4  86104-3 0  99942 46727  53.0141  77.7121 0009628 276.6520  83.3427 16.31551730324042

JSON: /api/v1/satellites/46727 · /tle

For live sub-satellite position, see the globe view (requires WebGL).

§ Visibility from observer

Set your observer location to see the next 7 days of passes ≥ 10°. The values pass through the URL so the page stays shareable.

No JS? Fill the form by hand. The geolocation button needs JavaScript.